FW7258 Weather Reports


time (UTC)temp
C
wind
direction
speed
KPH
gust
KPH
rain 1hr
cm
rain 24hr
cm
rain mn
cm
humidity
%
barometer
mb
20260508075127 8 144 1.6 4.8 0.00 0.00 0.00 71 1013.8
20260508073126 8 189 4.8 12.9 0.00 0.00 0.00 65 1014.0
20260508072128 9 165 4.8 11.3 0.00 0.00 0.00 59 1014.1
20260508071128 9 206 3.2 6.4 0.00 0.00 0.00 58 1014.0
20260508070129 8 187 4.8 16.1 0.00 0.00 0.00 60 1013.8
20260508064129 8 202 4.8 6.4 0.00 0.00 0.00 62 1013.8
20260508063128 8 180 1.6 1.6 0.00 0.00 0.00 62 1013.8
20260508061128 8 180 1.6 3.2 0.00 0.00 0.00 60 1014.1
20260508060226 8 202 3.2 3.2 0.00 0.00 0.00 59 1014.1
20260508054228 8 200 0.0 3.2 0.00 0.00 0.00 58 1014.3
20260508053244 8 202 0.0 1.6 0.00 0.00 0.00 58 1014.4
20260508051327 8 197 1.6 3.2 0.00 0.00 0.00 56 1014.4
20260508050329 8 180 0.0 1.6 0.00 0.00 0.00 57 1014.6
20260508044428 8 196 3.2 4.8 0.00 0.00 0.00 57 1014.5
20260508042428 7 199 3.2 4.8 0.00 0.00 0.00 59 1014.5
20260508041527 7 185 3.2 6.4 0.00 0.00 0.00 61 1014.4
20260508040528 6 178 4.8 6.4 0.00 0.00 0.00 64 1014.5
20260508035614 6 180 3.2 4.8 0.00 0.00 0.00 66 1014.4
20260508033810 5 180 4.8 6.4 0.00 0.00 0.00 65 1014.4
20260508031910 6 180 3.2 3.2 0.00 0.00 0.00 64 1014.3
20260508030912 6 180 3.2 3.2 0.00 0.00 0.00 63 1014.3
20260508025911 6 180 3.2 4.8 0.00 0.00 0.00 63 1014.4
20260508023911 6 180 4.8 4.8 0.00 0.00 0.00 63 1014.4
20260508022913 6 180 4.8 4.8 0.00 0.00 0.00 62 1014.3
20260508021912 6 180 4.8 4.8 0.00 0.00 0.00 60 1014.4
20260508015911 7 180 4.8 4.8 0.00 0.00 0.00 58 1014.3
20260508014913 7 180 3.2 3.2 0.00 0.00 0.00 57 1014.2
20260508013910 7 157 3.2 4.8 0.00 0.00 0.00 56 1014.2
20260508012911 7 157 1.6 3.2 0.00 0.00 0.00 53 1014.2
20260508011911 8 157 3.2 3.2 0.00 0.00 0.00 53 1014.2
20260508010913 8 157 1.6 1.6 0.00 0.00 0.00 53 1014.2
20260508005926 8 157 3.2 3.2 0.00 0.00 0.00 48 1014.2
20260508004913 9 360 0.0 1.6 0.00 0.00 0.00 45 1014.2
20260508004011 10 360 0.0 0.0 0.00 0.00 0.00 42 1014.3
20260508002112 11 360 0.0 1.6 0.00 0.00 0.00 40 1013.9
20260508001112 11 318 4.8 6.4 0.00 0.00 0.00 39 1013.8
20260507233211 12 315 3.2 9.7 0.00 0.00 0.00 38 1013.6
20260507233111 12 315 1.6 4.8 0.00 0.00 0.00 38 1013.6
20260507232112 12 264 3.2 9.7 0.00 0.00 0.00 38 1013.7
20260507232011 11 263 1.6 6.4 0.00 0.00 0.00 37 1013.6
20260507231110 12 316 3.2 6.4 0.00 0.00 0.00 38 1013.7
20260507230111 12 316 9.7 14.5 0.00 0.00 0.00 37 1013.6
20260507225112 12 1 1.6 6.4 0.00 0.00 0.00 37 1013.6
20260507224111 12 339 4.8 9.7 0.00 0.00 0.00 37 1013.6
20260507224012 12 290 3.2 6.4 0.00 0.00 0.00 37 1013.6
20260507222110 11 303 6.4 14.5 0.00 0.00 0.00 44 1013.7
20260507220111 12 332 6.4 14.5 0.00 0.00 0.00 46 1013.7
20260507215210 12 308 4.8 8.0 0.00 0.00 0.00 47 1013.5
20260507214211 13 6 8.0 12.9 0.00 0.00 0.00 42 1013.4
20260507213212 13 360 8.0 14.5 0.00 0.00 0.00 37 1013.0
20260507212210 13 320 11.3 16.1 0.00 0.00 0.00 39 1012.9
20260507211211 12 342 8.0 14.5 0.00 0.00 0.00 41 1012.9
20260507210226 12 348 4.8 8.0 0.00 0.00 0.00 40 1013.0
20260507205211 12 304 6.4 12.9 0.00 0.00 0.00 39 1012.9
20260507204211 12 204 1.6 6.4 0.00 0.00 0.00 40 1012.7
20260507203210 12 298 4.8 9.7 0.00 0.00 0.00 39 1012.6
20260507200311 12 287 3.2 6.4 0.00 0.00 0.00 38 1012.7
20260507194312 12 316 6.4 12.9 0.00 0.00 0.00 40 1013.0
20260507192311 13 299 3.2 6.4 0.00 0.00 0.00 39 1013.0
20260507191310 13 297 9.7 22.5 0.00 0.00 0.00 39 1013.0
20260507190312 13 242 3.2 12.9 0.00 0.00 0.00 37 1013.1
20260507184410 13 324 8.0 11.3 0.00 0.00 0.00 38 1013.1
20260507183411 13 300 3.2 8.0 0.00 0.00 0.00 37 1013.1
20260507182412 13 288 3.2 8.0 0.00 0.00 0.00 36 1013.0
20260507180411 14 182 3.2 8.0 0.00 0.00 0.00 37 1013.1
20260507175425 14 205 3.2 9.7 0.00 0.00 0.00 36 1013.2
20260507173413 14 325 9.7 12.9 0.00 0.00 0.00 37 1013.1
20260507173311 13 296 6.4 11.3 0.00 0.00 0.00 37 1013.1
20260507172209 13 176 4.8 12.9 0.00 0.00 0.00 36 1013.3
20260507165330 13 308 3.2 8.0 0.00 0.00 0.00 40 1013.6
20260507163330 13 315 9.7 12.9 0.00 0.00 0.00 38 1013.5
20260507162332 13 170 3.2 9.7 0.00 0.00 0.00 38 1013.4
20260507161429 14 222 3.2 12.9 0.00 0.00 0.00 37 1013.6
20260507160432 13 198 4.8 8.0 0.00 0.00 0.00 39 1013.4
20260507155431 13 248 1.6 4.8 0.00 0.00 0.00 39 1013.6
20260507154431 12 349 0.0 1.6 0.00 0.00 0.00 42 1013.8
20260507154331 12 343 6.4 9.7 0.00 0.00 0.00 42 1013.8
20260507153429 13 301 4.8 8.0 0.00 0.00 0.00 41 1013.8
20260507152447 13 358 1.6 3.2 0.00 0.00 0.00 41 1013.7
20260507151531 13 302 6.4 12.9 0.00 0.00 0.00 41 1013.7
20260507144532 12 312 8.0 19.3 0.00 0.00 0.00 49 1013.8
20260507143531 12 327 1.6 3.2 0.00 0.00 0.00 51 1014.1
20260507141630 11 324 0.0 3.2 0.00 0.00 0.00 54 1014.2
20260507135631 10 254 1.6 4.8 0.00 0.00 0.00 58 1014.3
20260507134631 10 164 1.6 4.8 0.00 0.00 0.00 60 1014.4
20260507133729 10 258 0.0 1.6 0.00 0.00 0.00 61 1014.5
20260507132730 9 197 1.6 4.8 0.00 0.00 0.00 63 1014.6
20260507131748 9 180 3.2 8.0 0.00 0.00 0.00 64 1014.5
20260507130731 9 267 3.2 6.4 0.00 0.00 0.00 63 1014.4
20260507124730 8 156 3.2 6.4 0.00 0.00 0.00 66 1014.3
20260507123731 8 235 4.8 11.3 0.00 0.00 0.00 67 1014.3
20260507120929 7 202 1.6 6.4 0.00 0.00 0.00 71 1014.2
20260507115931 6 157 0.0 0.0 0.00 0.00 0.00 72 1014.3
20260507113931 5 180 6.4 8.0 0.00 0.00 0.00 75 1014.2
20260507112932 5 172 3.2 6.4 0.00 0.00 0.00 76 1014.1
20260507112847 5 175 4.8 6.4 0.00 0.00 0.00 76 1014.1
20260507111830 5 172 4.8 4.8 0.00 0.00 0.00 77 1014.0
20260507110846 5 175 4.8 6.4 0.00 0.00 0.00 76 1014.0
20260507105930 4 180 4.8 6.4 0.00 0.00 0.00 77 1013.8
20260507104932 4 182 4.8 8.0 0.00 0.00 0.00 77 1013.8
20260507104831 4 180 4.8 6.4 0.00 0.00 0.00 77 1013.7
20260507103929 4 180 4.8 6.4 0.00 0.00 0.00 78 1013.7
20260507102930 4 180 4.8 4.8 0.00 0.00 0.00 78 1013.6
20260507101929 4 180 4.8 6.4 0.00 0.03 0.00 78 1013.6
20260507101028 4 180 4.8 4.8 0.00 0.03 0.00 78 1013.7
20260507100037 4 180 4.8 6.4 0.00 0.03 0.00 78 1013.5
20260507094147 4 180 3.2 3.2 0.00 0.08 0.00 79 1013.6
20260507092328 4 180 4.8 6.4 0.00 0.10 0.00 80 1013.6
20260507090331 3 183 4.8 4.8 0.00 0.13 0.00 80 1013.7
20260507085430 3 179 4.8 6.4 0.00 0.13 0.00 80 1013.6
20260507084429 3 180 3.2 3.2 0.00 0.15 0.00 79 1013.8
20260507083431 3 180 3.2 3.2 0.00 0.15 0.00 80 1013.8
20260507082529 3 180 1.6 3.2 0.00 0.18 0.00 79 1013.7
20260507081531 3 180 3.2 3.2 0.00 0.25 0.00 79 1013.8
20260507080530 3 180 1.6 3.2 0.00 0.30 0.00 79 1013.9
20260507075628 3 180 1.6 3.2 0.00 0.36 0.00 79 1014.0